Location: Isles
(48.9125°N, 2.8272°E)
Time: 15:16:24
(UTC+00:00)

Cosmos 1544 Rocket - Pass Details

Date: 03 February 2023
Orbit: 604 x 628 km, 82.5° (Epoch: 30 March)

Event Time Altitude Azimuth Distance (km) Brightness Sun altitude
Rises 17:20:25 0° 347° (NNW) 2,873 6.9 -5.6°
Reaches altitude 10° 17:22:39 10° 345° (NNW) 1,964 6.1 -6.0°
Maximum altitude 17:26:57 64° 264° (W) 676 4.1 -6.7°
Drops below altitude 10° 17:31:13 10° 183° (S) 1,953 6.4 -7.3°
Sets 17:33:26 0° 181° (S) 2,854 7.2 -7.7°
